Weather in Osaka

Japan     34°40′38″N   135°30′02″E
temp.,
°C
wind,
m/s
gust,
m/s
humid.,
%
clouds,
%
prec.,
mm/h
press.,
hPa
HPBL,
m
26 february, fri
fri2600:00+10wnw1131100 0.0 102433
03:00+9nne2237100 0.0 1022318
06:00+8ne3552100 0.1 1023796
09:00+6nne5775100 0.7 1023651
12:00+7nne3670100 1.5 1022725
15:00+10n5755100 1.5 10211028
18:00+9n61056100 0.0 1021653
21:00+8nne4947100 0.1 1021748
27 february, sat
sat2700:00+8nne61339100 0.0 1021852
03:00+6n71345100 0.0 1023855
06:00+5n81553100 0.0 1025886
09:00+6n81448100 0.0 1028971
12:00+8n71238100 0.0 1027998
15:00+9n6103751 0.0 1026986
18:00+6n47470 0.0 1028727
21:00+5n465531 0.0 1032409
28 february, sun
sun2800:00+4nne4560100 0.0 1032332
03:00+4nne355998 0.0 1033251
06:00+4ne256293 0.0 1033213
09:00+8ene376489 0.0 1034501
12:00+13se23441 0.0 10321281
15:00+15ene34382 0.0 10301522
18:00+13e464725 0.0 1032862
21:00+11ese476420 0.0 1032398
1 march, mon
mon100:00+11ese377069 0.0 1031678
03:00+10nne227359 0.0 103060
06:00+9ne248219 0.0 1029150
09:00+11ne466950 0.0 1029374
12:00+16ene335173 0.0 1027836
15:00+18e344586 0.0 10241383
18:00+16e465496 0.0 1023401
21:00+14ene367192 0.0 1022340
2 march, tue
tue200:00+12ene2378100 0.0 1019132
03:00+12ne2382100 0.0 1014128
06:00+12ne128497 0.1 101133
09:00+13ene238899 1.0 1008103
12:00+16s51690100 2.0 10041094
15:00+9nnw121976100 7.3 1008753
18:00+6n61373100 5.6 10141347
21:00+5nnw7146899 5.8 10181481